User: anonymous   Login
Location: Unspecified
(0.0000°N, 0.0000°E)
Time: 16:42:48
(UTC+00:00)
Language:

UFO-8 - Orbit

View from above orbital plane
View from above orbital plane
View from above satellite
View from above satellite

Ground track
Ground track

The orbit data is extracted from the following two-line orbital elements,

1 25258U 98016A   17015.31243558 0.00000000  00000-0  00000-0 0    04
2 25258   7.3542  38.7869 0004003 246.0034 113.9806  1.00261000    00
Epoch (UTC): 15 January 2017 07:29:54
Eccentricity: 0.0004003
inclination: 7.3542°
perigee height: 35772 km
apogee height: 35806 km
right ascension of ascending node: 38.7869°
argument of perigee: 246.0034°
revolutions per day: 1.00261000
mean anomaly at epoch: 113.9806°
orbit number at epoch: 0

The dashed part of the orbit path shows where the satellite is in the earth's shadow,  

DLR